Theta_e
325 325 325 325 325 326 326 326 326 327 328 329 330 330 330 330 330 329 329 328 328 328 328 327 328 328 327 326 326 325 321 304 303 302 304 306 327 335 333 334 333 331 324 297 301 299 296 296 299 297 296 295 295 295 297 301 297 293 288 285 284 282 284 286 287 286 288 289 292 291 288 289 290 289 291 291 289 289 290 291 292 291 291 295 294 297 298 300
324 324 324 324 325 325 325 325 326 326 328 329 329 330 330 330 329 329 328 328 328 328 328 328 328 328 327 325 325 325 311 304 300 303 304 318 333 333 332 334 330 326 315 297 299 296 296 295 296 293 294 293 296 298 299 299 297 290 285 285 286 281 286 289 287 287 290 293 292 291 289 289 291 290 290 289 292 289 291 292 291 292 294 295 294 294 299 300
324 324 324 324 324 325 325 325 325 326 327 328 329 329 330 328 328 329 328 328 328 328 328 328 328 327 327 325 323 321 309 301 300 300 303 325 334 332 331 331 328 323 300 300 299 299 299 299 297 294 292 293 292 293 295 296 298 291 290 286 284 286 287 288 289 292 289 291 291 291 289 287 289 290 291 290 290 288 289 292 293 289 293 294 292 290 296 299
324 323 323 324 324 324 324 324 324 326 327 327 328 329 329 327 328 328 328 328 328 328 327 328 328 327 325 325 323 311 304 299 296 300 304 326 332 330 331 328 326 309 302 302 299 296 294 294 292 296 295 291 290 293 293 293 294 292 289 286 286 287 290 290 288 291 291 289 289 289 287 287 292 290 290 289 289 292 294 295 294 295 294 294 293 291 295 298
323 323 323 323 323 323 324 324 325 326 327 327 328 328 328 327 328 328 328 328 328 328 327 328 327 326 325 324 318 308 299 292 297 300 304 326 331 329 329 325 326 300 303 300 296 294 295 296 294 293 294 294 289 290 293 292 295 290 291 290 290 288 289 295 292 290 289 287 287 287 287 292 289 288 288 288 288 291 296 298 292 293 294 292 292 290 294 297
323 323 323 323 323 324 324 324 325 326 327 327 327 328 327 327 327 327 327 327 327 327 328 327 327 325 325 323 304 302 300 287 300 302 327 325 327 326 325 326 320 300 297 295 295 294 296 296 295 292 291 292 291 291 292 290 294 290 287 288 289 290 291 291 292 291 289 289 289 288 290 288 289 291 291 290 291 295 299 298 294 292 293 292 289 292 294 297
322 323 322 322 323 323 323 324 325 326 326 326 327 327 327 328 327 327 326 326 327 327 327 327 326 326 324 320 302 302 300 300 301 304 319 324 323 321 322 314 312 298 298 297 294 294 292 294 293 293 290 288 288 289 290 290 291 291 289 287 293 289 290 292 292 289 287 287 290 290 288 288 290 288 289 290 295 296 297 297 295 294 293 290 291 292 293 295
322 322 321 321 321 321 322 323 324 324 325 326 326 327 327 327 327 326 326 326 327 327 327 326 325 325 322 303 304 298 294 301 302 303 316 319 307 304 309 300 301 297 298 295 296 294 293 293 295 293 289 292 292 290 291 290 289 289 287 287 289 289 291 289 289 289 289 288 290 288 287 290 291 290 288 292 294 296 297 295 294 294 290 289 288 291 291 292
322 321 321 320 319 319 320 322 323 324 324 325 326 326 327 327 326 326 326 326 327 327 327 325 324 324 320 302 296 294 297 304 304 301 302 299 299 299 301 302 299 297 294 294 294 296 295 291 295 294 294 292 291 291 289 290 287 288 290 287 288 291 293 293 291 291 289 289 287 286 287 290 291 290 289 293 295 296 296 293 294 289 289 290 290 291 290 290
321 320 319 319 318 319 320 321 321 323 324 325 325 326 327 327 325 325 326 327 326 326 326 326 324 321 305 301 296 296 302 301 299 298 300 298 298 300 300 298 298 295 297 294 296 295 296 294 297 297 296 293 291 290 288 290 290 287 287 287 288 291 291 291 288 291 289 287 286 287 287 289 290 289 289 290 291 292 291 292 292 289 290 291 291 292 290 289
320 319 319 319 318 319 320 320 321 322 323 324 324 325 326 326 325 325 326 326 326 326 326 325 321 313 303 297 295 294 305 303 299 297 298 300 300 300 300 299 299 297 296 294 296 297 297 294 295 295 296 292 291 290 289 290 288 287 287 287 290 289 289 290 289 287 287 291 284 287 288 290 286 287 289 294 296 293 291 292 291 290 291 291 292 291 292 290
319 319 319 319 318 319 319 320 320 321 322 323 324 324 325 325 325 324 325 325 326 326 324 323 318 300 297 298 296 299 301 302 298 298 301 301 301 303 301 298 298 300 297 297 297 298 297 298 296 297 294 295 290 291 290 287 290 289 288 288 286 286 290 291 289 287 286 292 289 287 288 285 284 285 290 292 293 292 290 289 290 291 292 292 292 293 292 293
318 318 318 319 319 319 319 320 320 320 321 322 323 324 324 324 324 324 324 325 325 326 325 321 315 304 301 296 301 305 301 300 298 299 300 300 300 300 300 299 299 298 299 297 297 299 298 295 296 295 294 294 289 291 292 289 289 288 287 284 287 284 286 290 288 288 291 292 287 292 286 289 289 289 291 292 290 288 288 290 291 291 292 292 292 293 293 293
317 317 318 318 319 319 319 319 320 320 321 322 323 324 324 323 323 324 324 325 326 326 325 318 301 299 297 296 303 304 301 299 300 300 299 300 301 302 301 299 299 297 299 296 298 297 299 296 296 295 292 293 291 292 292 287 286 289 286 284 281 285 282 288 289 291 290 289 287 290 285 289 292 295 294 290 289 289 293 294 290 291 292 292 292 292 293 294
317 317 317 318 318 318 318 319 319 320 321 322 323 323 323 322 323 324 325 325 324 325 322 314 301 302 295 301 302 302 317 301 302 301 300 300 298 301 300 298 297 296 296 299 300 299 296 296 294 291 291 289 291 288 287 283 281 282 285 281 281 283 287 291 291 289 289 289 286 289 285 288 292 295 295 289 291 289 292 295 295 293 292 292 292 292 293 294
317 317 317 316 317 318 318 318 318 319 321 322 323 322 321 321 322 324 325 323 321 321 309 308 303 296 294 296 302 312 302 303 303 301 299 301 299 299 299 295 296 296 296 297 297 295 294 293 290 289 291 290 284 284 283 283 280 280 283 283 282 282 285 287 287 285 288 287 287 288 287 290 291 295 297 294 293 290 292 294 295 295 295 295 293 293 294 294
317 317 316 316 317 317 317 317 317 319 321 321 322 321 320 320 322 324 323 317 311 308 308 305 300 300 296 302 305 301 300 302 302 304 301 300 300 299 295 295 297 294 292 297 295 296 293 293 290 290 286 285 282 283 284 280 280 280 281 283 281 283 286 285 290 288 284 288 289 287 284 289 292 294 296 297 296 293 293 295 296 296 296 296 295 294 294 294
316 316 316 316 317 316 316 316 317 320 321 321 320 320 317 321 322 321 315 308 303 303 304 303 300 299 297 298 297 299 300 299 303 302 300 301 296 296 296 296 294 293 290 293 294 293 292 293 288 289 284 284 281 283 282 279 282 283 283 281 283 281 283 285 283 288 290 288 285 285 287 289 292 294 295 296 296 294 294 295 296 296 296 295 293 293 293 293
316 316 316 315 316 315 316 316 318 320 321 321 321 320 321 316 303 302 303 302 295 294 295 294 297 291 290 296 298 299 302 304 302 301 302 299 299 295 295 294 291 293 292 291 293 292 290 287 287 283 285 286 288 286 286 286 284 284 282 282 281 282 286 285 286 289 287 288 287 285 287 289 291 293 295 296 297 295 295 296 296 296 296 294 293 293 294 295
315 315 314 315 315 315 316 317 319 320 320 314 309 305 299 298 294 290 297 301 295 294 294 295 297 296 298 298 299 303 304 301 300 299 299 298 300 295 294 292 291 291 288 289 289 288 290 286 283 282 285 286 286 285 287 285 285 284 283 282 283 282 285 288 288 289 287 286 287 286 288 289 291 292 294 295 296 295 295 295 295 295 295 294 295 295 295 294
314 314 314 314 314 314 315 317 320 318 319 309 304 298 292 291 287 286 291 297 296 295 297 298 298 298 299 299 299 300 296 296 296 298 299 298 296 295 293 293 289 292 287 287 289 289 286 284 284 285 286 287 287 285 283 284 284 284 283 282 283 282 283 288 288 290 288 286 287 287 287 289 291 292 293 294 294 293 294 294 295 295 295 294 293 292 293 293
314 313 313 313 314 314 315 318 319 317 315 306 308 301 296 295 296 292 296 292 296 295 294 296 296 298 297 299 300 297 295 292 295 297 297 298 295 294 291 289 286 288 285 284 286 286 284 284 286 287 286 284 284 284 284 285 285 283 283 283 281 284 283 288 287 287 286 284 287 287 286 288 290 292 293 293 293 294 295 294 294 293 292 292 292 291 292 292
313 313 313 313 312 313 315 318 317 315 306 306 301 298 299 301 296 296 300 293 293 296 296 295 299 295 297 299 296 298 292 290 291 295 296 296 294 292 291 286 288 285 285 283 287 283 282 281 285 286 285 286 284 283 283 283 282 282 282 281 283 285 282 282 289 289 289 285 284 285 285 288 290 292 292 293 293 293 294 294 293 292 291 291 291 291 291 291
312 312 312 312 312 314 316 318 316 309 306 307 306 303 302 297 294 299 298 291 289 292 295 298 299 297 296 297 298 295 294 294 293 294 296 294 291 292 289 287 286 284 287 284 287 285 285 289 287 285 283 286 285 283 283 283 283 281 283 283 282 283 285 283 286 286 287 289 288 284 282 282 287 287 288 291 293 292 292 293 293 291 290 290 291 292 291 291
312 312 312 312 312 314 316 315 308 305 304 307 305 307 298 295 296 298 296 289 288 289 296 298 296 295 298 300 296 297 292 292 292 293 293 293 292 289 289 288 287 283 284 284 284 283 284 285 285 285 284 284 285 285 285 285 283 281 280 285 286 286 284 285 285 283 283 283 286 281 277 278 285 286 287 289 290 290 292 291 291 290 290 290 290 290 290 291
311 311 311 311 313 314 316 300 300 308 307 304 307 307 300 296 294 295 289 283 285 286 294 296 301 298 301 296 297 292 293 292 295 295 297 295 294 292 290 286 288 286 285 285 285 284 284 285 286 287 285 284 284 283 283 286 282 281 285 282 283 283 283 282 282 282 278 277 284 286 278 275 284 284 286 288 288 289 291 290 290 290 290 290 289 289 289 288
311 310 311 312 313 315 297 294 302 304 299 304 307 307 303 299 296 297 290 281 282 289 292 296 297 295 299 295 293 290 283 284 291 290 292 295 294 293 289 285 285 284 286 284 281 280 285 286 284 283 285 284 282 282 283 285 284 281 282 284 284 282 282 283 282 281 281 284 286 285 283 277 277 283 287 286 287 287 288 288 289 290 290 289 288 288 286 286
310 310 311 312 312 314 305 306 302 304 304 308 306 303 302 298 297 296 286 280 277 293 292 292 296 301 300 296 292 288 287 288 287 291 291 291 293 289 289 286 286 285 286 284 279 282 284 285 285 284 284 283 282 283 285 284 283 283 284 284 284 284 283 283 281 280 281 280 278 280 280 276 277 283 287 284 284 285 286 286 288 289 290 290 288 286 285 286
309 310 310 312 312 314 311 309 308 307 309 308 305 303 301 299 295 286 283 279 288 285 301 292 302 297 292 291 288 287 289 289 288 291 290 291 292 290 285 284 286 285 283 286 282 283 285 285 285 285 284 281 283 283 281 284 284 283 285 285 284 282 281 282 280 280 280 277 275 279 281 276 277 284 283 285 283 282 283 285 286 288 288 288 286 285 286 288
309 310 311 312 306 302 301 305 307 307 307 305 303 303 305 300 289 283 283 276 289 286 293 294 296 291 287 287 284 286 289 287 288 289 286 287 290 293 291 288 286 285 284 281 283 283 284 286 289 286 283 282 282 285 282 284 286 284 282 284 285 284 283 280 280 277 272 271 276 280 280 279 274 281 281 280 282 282 283 283 285 285 286 286 284 285 287 288
309 310 311 310 297 300 300 297 307 307 307 304 304 305 300 287 285 284 273 283 288 288 293 291 291 289 287 286 284 283 285 284 287 284 284 287 287 288 288 286 287 281 277 278 279 280 284 285 285 285 286 286 285 284 283 283 285 284 281 280 280 280 280 279 272 273 270 270 278 279 278 278 271 274 281 283 286 285 282 280 281 282 283 283 284 286 288 288
309 310 312 303 300 302 297 294 302 307 308 306 304 292 283 285 284 284 283 291 287 287 285 286 286 284 285 284 284 282 285 285 285 283 283 281 279 283 282 282 281 276 277 278 278 281 279 281 282 287 289 288 284 283 284 283 283 283 280 279 276 272 275 266 269 266 268 271 275 279 279 274 274 278 282 284 282 283 282 281 281 281 282 283 285 287 288 288
309 310 310 303 306 305 307 307 308 308 309 306 294 283 281 282 279 283 284 286 287 288 286 288 287 287 284 283 282 283 283 284 284 283 284 282 280 281 283 283 283 281 277 279 279 277 277 280 282 285 286 286 285 281 280 279 280 279 278 277 274 269 265 267 270 271 272 274 279 277 279 274 279 282 282 282 282 280 281 281 282 283 283 284 285 287 287 287
309 310 302 302 304 305 307 309 309 309 311 300 296 286 284 280 280 289 282 283 289 284 286 286 285 281 283 284 283 284 282 284 281 283 281 282 278 280 279 282 283 282 281 279 276 275 273 271 281 283 280 284 283 283 282 280 278 278 282 278 274 268 269 265 269 266 267 270 275 279 274 268 273 275 279 279 279 280 282 282 283 284 284 284 285 286 286 286
310 302 301 303 305 305 306 307 308 309 304 290 282 282 281 281 281 283 282 281 281 284 287 285 285 283 281 282 281 282 283 281 282 281 279 279 279 280 279 280 282 283 281 277 276 276 276 276 278 283 284 282 281 283 283 280 278 278 278 279 272 269 277 269 271 269 268 269 270 271 274 277 277 283 282 281 281 281 282 282 283 283 284 284 284 285 285 285
306 302 306 308 308 307 303 306 308 309 294 285 282 279 280 282 286 281 282 285 288 286 285 282 280 283 279 278 280 281 284 281 280 280 278 281 281 280 282 281 281 282 281 277 278 273 277 276 282 283 282 281 280 281 280 283 269 275 279 272 275 279 276 271 271 275 274 271 269 276 273 276 280 281 280 279 279 280 281 281 282 281 282 283 283 284 284 285
299 301 302 301 303 302 304 307 309 301 291 283 281 278 281 280 285 282 290 287 288 284 282 281 281 281 280 279 280 278 281 280 281 278 276 279 279 281 281 281 283 280 282 281 277 281 271 276 283 281 280 281 281 280 279 280 282 277 270 275 279 281 276 269 263 266 267 263 266 271 268 270 271 266 277 277 277 278 279 280 280 281 282 282 283 283 284 284
298 302 304 302 301 303 306 308 309 298 289 285 280 288 281 285 286 285 287 287 288 285 283 280 281 282 279 278 279 279 281 280 276 280 278 279 276 282 281 280 282 280 279 281 276 277 280 273 278 281 282 281 281 279 278 282 281 277 276 280 274 263 265 270 267 261 261 259 263 267 270 269 272 270 274 274 275 276 278 279 279 280 281 282 282 283 284 285
296 295 291 298 304 309 309 305 300 294 286 283 280 284 285 282 285 287 288 289 289 286 286 284 282 282 279 280 278 279 278 278 278 279 273 278 274 281 281 281 280 280 280 280 279 280 280 273 276 278 278 278 278 276 269 273 279 279 275 273 276 272 268 263 266 267 266 263 263 261 266 265 272 272 274 274 276 277 277 277 278 280 281 281 281 282 283 284
296 289 287 302 304 306 304 304 296 293 287 282 281 282 283 284 287 289 289 292 289 288 287 284 285 282 282 280 279 281 279 277 278 278 276 278 280 283 278 279 279 279 280 279 279 280 274 281 270 278 280 278 272 276 272 275 272 272 272 271 272 271 274 273 270 266 261 262 260 262 260 266 271 277 276 276 277 277 277 277 279 280 280 280 281 282 283 284
296 290 289 304 306 303 304 299 293 287 284 284 283 283 285 287 292 293 292 291 290 291 289 285 282 282 280 280 281 279 279 278 278 278 279 280 280 275 280 279 280 279 279 278 277 276 266 273 270 275 274 273 274 277 276 276 275 274 273 270 272 269 266 264 262 272 265 261 259 261 260 268 275 277 278 277 278 278 279 279 279 279 279 280 281 282 283 284
290 284 289 305 305 305 298 292 288 287 286 284 284 287 289 298 291 291 289 289 290 288 288 284 284 282 279 282 279 280 279 279 278 279 278 279 279 277 279 279 279 280 276 274 277 278 275 272 271 270 273 274 276 279 278 278 276 274 273 271 274 272 272 262 261 263 266 269 270 268 264 265 276 277 278 278 279 279 279 279 278 278 279 279 280 282 283 284
289 287 302 304 305 303 296 289 289 289 288 288 290 291 292 291 291 291 289 290 289 288 287 287 285 283 282 282 281 278 279 278 279 279 278 277 278 278 279 278 279 278 277 276 274 277 283 265 261 272 275 275 274 275 277 277 277 274 274 276 273 271 272 270 268 270 266 267 263 263 262 268 276 277 278 279 279 279 280 278 277 278 279 279 280 282 283 283
294 296 298 304 302 300 292 286 284 286 288 290 290 290 292 291 290 288 288 287 287 286 287 285 285 285 282 280 280 280 280 275 280 279 278 278 276 280 278 277 279 279 277 275 273 276 267 271 270 265 266 269 271 272 273 274 274 272 271 273 275 275 274 273 272 271 264 267 267 264 259 265 274 278 279 278 278 277 277 278 278 277 278 279 281 282 282 283
295 296 296 298 299 297 290 289 285 285 287 287 287 286 287 288 289 288 287 286 286 284 284 284 284 283 280 280 279 279 280 279 276 281 277 278 277 279 276 277 279 276 279 281 287 279 272 272 265 260 261 260 260 261 264 267 270 273 274 274 275 274 273 270 264 265 263 267 269 264 263 270 275 277 276 276 276 276 277 277 278 279 278 279 280 281 281 282
288 282 293 290 295 294 292 291 290 287 285 285 284 286 287 285 286 286 288 286 284 284 283 284 283 281 279 279 278 278 280 279 279 277 276 276 277 277 279 277 278 280 283 285 283 279 267 274 273 270 266 264 267 269 274 276 272 269 271 273 273 274 274 271 270 266 264 266 265 267 268 269 271 273 273 274 275 274 275 276 277 278 279 280 280 280 281 281
292 284 287 284 292 292 288 289 287 288 284 288 282 285 282 284 284 284 289 284 286 283 283 282 281 281 279 278 277 276 277 277 278 276 276 276 278 278 279 278 278 280 285 284 283 275 271 267 273 273 272 273 273 273 274 275 271 272 271 271 274 273 272 269 267 265 270 266 262 270 271 268 269 272 273 273 274 275 276 276 277 278 279 279 279 280 283 281
285 289 292 293 288 285 285 287 289 288 287 286 284 285 283 281 283 282 286 286 284 284 281 281 279 281 280 279 278 273 275 275 276 274 276 278 276 279 277 280 277 282 283 279 282 277 273 265 270 273 271 273 274 273 274 274 274 273 273 273 272 273 271 268 268 270 270 265 264 269 270 268 270 272 274 274 275 275 276 276 278 278 279 279 279 279 279 279
290 287 290 293 288 288 289 289 289 289 287 286 284 286 283 283 282 284 284 283 283 279 280 277 279 279 278 278 279 276 277 272 272 275 275 274 276 275 273 275 279 278 278 277 278 278 271 267 271 273 270 273 273 274 274 273 272 273 273 273 273 272 271 271 271 272 271 269 270 270 270 270 272 273 274 275 277 277 277 278 278 278 278 278 279 279 279 279
286 286 284 290 289 285 287 287 288 288 285 288 283 285 284 284 282 284 283 283 280 281 281 278 279 279 279 279 279 277 278 279 277 273 278 273 270 275 271 274 272 276 277 276 277 275 274 266 276 272 269 269 272 274 274 273 272 270 272 273 273 272 272 272 271 271 271 270 271 270 269 269 274 276 275 277 278 278 278 277 277 278 278 278 278 278 279 279
294 294 293 288 285 285 285 286 286 285 284 285 283 285 285 285 284 286 284 286 283 281 280 280 281 279 280 279 279 279 280 278 279 279 279 277 272 276 270 270 277 273 276 274 276 274 277 266 273 270 266 267 272 272 272 273 272 271 270 271 271 270 268 270 269 271 269 268 270 269 267 268 273 276 277 277 277 276 276 276 277 278 278 279 278 278 278 279
293 294 295 292 285 289 284 285 284 285 282 285 286 286 285 285 287 287 283 284 280 283 283 282 280 279 278 277 277 278 280 278 279 279 279 278 278 277 279 278 278 276 272 274 278 272 273 268 264 263 265 267 272 272 271 270 268 264 265 270 271 271 272 272 273 273 272 272 268 265 267 273 274 276 275 275 276 276 276 277 277 278 279 279 278 278 279 279
Wind_Speed
20 20 20 21 21 22 22 22 22 24 24 24 24 22 22 19 16 15 15 16 16 16 14 16 14 11 9 10 11 10 10 3 5 4 10 2 3 6 7 8 9 11 4 3 7 9 5 7 9 10 6 3 3 2 2 2 1 2 1 1 5 4 2 5 5 7 2 3 8 6 0 3 11 3 4 2 3 4 7 8 5 4 9 10 6 1 1 0
20 20 21 21 22 22 23 23 23 23 22 23 24 22 21 19 18 14 17 18 16 15 14 15 14 11 9 9 9 9 4 3 5 9 3 4 8 6 7 7 8 11 3 6 6 4 5 6 4 6 5 3 2 1 1 0 1 1 2 1 6 5 6 5 4 5 1 9 8 7 3 3 10 1 2 3 9 4 9 11 4 9 13 11 9 9 1 2
19 20 20 21 22 22 23 23 23 24 23 23 23 22 20 20 19 16 16 17 17 15 15 14 13 12 9 8 8 5 2 3 4 7 3 6 8 7 7 7 8 8 5 1 0 4 2 1 1 1 3 2 6 2 4 1 1 1 1 4 6 7 4 6 6 7 6 5 10 10 4 1 7 0 0 3 11 7 11 13 9 5 12 11 6 5 5 3
19 19 20 20 21 22 23 24 24 24 23 24 23 22 19 20 19 17 16 16 15 14 15 13 11 11 10 8 6 1 1 3 5 4 1 8 10 8 8 8 6 4 4 7 3 3 3 4 4 3 1 6 4 1 2 2 2 1 2 4 5 2 4 5 6 7 7 3 5 6 4 6 8 4 1 4 9 14 14 13 12 13 12 10 7 5 2 4
19 19 20 21 22 23 24 24 24 24 25 24 24 22 20 19 18 18 16 15 14 14 14 13 12 11 12 9 3 1 3 5 1 2 3 8 10 9 8 8 5 4 5 5 3 5 5 5 1 4 4 2 2 1 0 2 1 2 8 5 5 1 3 12 6 6 4 4 2 6 9 11 2 3 5 5 9 14 12 12 2 8 9 7 7 6 2 4
18 19 20 21 21 22 24 24 24 24 24 24 22 21 20 19 19 19 18 17 15 14 12 13 12 12 12 9 1 2 4 2 1 3 6 9 9 9 8 7 7 2 3 5 2 2 6 6 5 3 3 1 1 1 2 1 0 3 4 5 4 5 5 4 1 2 2 2 5 7 6 4 6 9 9 8 15 15 18 15 6 6 8 7 4 2 4 5
17 18 18 19 20 21 22 23 24 24 26 24 24 21 22 21 20 19 18 17 16 13 13 11 11 12 15 3 1 10 8 1 1 4 8 9 8 8 6 5 7 6 7 5 6 3 3 5 5 0 1 1 1 1 2 1 0 3 7 3 11 4 10 10 10 7 6 5 8 5 5 7 12 12 2 8 13 16 17 15 10 11 9 5 7 8 10 8
14 16 16 18 20 21 22 22 24 24 25 25 23 22 21 23 21 18 18 18 13 12 10 10 10 11 12 3 1 4 4 1 4 3 8 8 7 9 4 3 9 4 9 4 1 2 1 5 3 1 1 1 2 1 0 1 1 4 6 4 7 4 8 5 6 8 7 8 9 5 4 13 10 7 6 19 8 15 17 10 11 9 7 6 6 11 9 7
15 15 16 17 19 20 21 22 23 24 24 24 24 21 20 22 21 18 18 17 13 11 9 8 9 9 4 2 4 6 3 1 1 6 6 7 8 7 10 4 6 6 3 2 2 3 3 2 0 1 3 1 1 1 1 1 5 5 8 2 6 10 15 11 12 9 4 4 5 4 8 13 14 6 11 19 15 15 12 8 10 5 6 8 7 10 8 7
17 18 18 18 19 19 20 21 24 24 25 24 23 22 20 21 22 18 17 14 13 11 8 6 8 8 3 3 4 8 1 1 3 4 4 5 8 8 9 2 4 3 2 2 2 4 3 3 1 1 1 1 1 3 2 2 4 3 4 5 7 14 14 10 4 12 8 4 5 3 5 8 4 6 10 2 4 5 5 9 9 4 8 9 8 8 6 6
17 17 18 17 18 19 20 21 23 24 24 25 25 23 20 21 22 19 15 13 12 8 5 6 6 6 1 2 5 4 1 2 1 4 5 6 9 8 5 6 1 3 2 3 4 0 3 3 3 2 1 2 2 4 3 3 2 2 3 7 12 9 10 9 9 4 5 5 6 6 7 10 3 0 10 11 11 8 7 10 9 9 9 10 10 9 7 6
17 17 17 17 18 18 19 20 21 22 23 25 25 25 22 21 21 20 16 12 8 6 4 4 3 1 3 8 6 2 0 2 3 2 4 7 4 1 3 2 1 1 1 1 1 1 2 2 4 1 1 1 3 0 2 2 0 3 1 4 7 9 10 8 5 3 4 7 6 5 7 3 1 6 9 10 7 8 7 9 9 11 11 10 11 10 8 9
15 16 16 16 16 16 17 19 20 21 23 25 26 25 24 21 20 19 16 10 6 5 2 2 2 1 1 5 1 3 0 0 1 5 3 5 1 1 1 0 1 1 1 2 0 2 2 3 2 1 1 1 1 1 1 2 2 2 1 1 7 4 7 6 2 1 10 6 10 11 16 9 7 11 9 8 6 5 8 10 10 9 10 10 9 10 10 7
14 14 14 14 15 15 16 18 19 21 22 24 25 28 25 22 19 16 13 9 8 3 2 1 2 3 2 0 3 2 1 1 1 5 5 4 5 5 0 3 2 3 2 4 1 1 1 0 3 1 1 1 2 4 5 4 3 2 1 2 0 10 3 4 6 9 4 3 7 7 9 17 14 16 3 1 1 5 13 15 8 10 9 9 9 9 11 10
13 14 14 15 16 16 17 18 19 22 23 24 26 28 26 24 17 13 12 6 3 2 5 4 3 1 3 0 2 5 3 2 6 4 2 6 4 4 3 8 4 5 2 3 2 0 1 5 2 2 0 1 0 3 5 4 4 2 4 4 4 2 12 12 8 1 7 3 7 6 10 9 16 20 8 0 6 1 13 18 15 8 8 8 7 8 10 11
13 14 15 17 17 18 18 19 20 22 23 26 26 26 25 23 11 9 9 3 3 7 2 0 2 5 7 1 0 2 4 3 4 1 1 1 1 2 2 4 3 2 3 2 2 2 3 5 6 0 1 1 3 1 4 4 3 5 5 5 7 5 8 14 2 2 4 2 2 3 12 17 17 17 23 11 2 6 12 19 19 16 12 9 6 6 8 11
13 14 15 16 17 18 20 19 21 22 22 24 26 27 23 18 7 9 3 5 3 1 1 0 1 1 1 2 0 1 2 2 4 2 6 1 0 0 3 4 1 8 5 2 4 1 4 1 1 1 4 4 1 3 6 6 6 3 2 3 3 8 10 10 12 2 3 4 9 4 6 15 19 22 20 22 15 9 12 19 20 18 13 12 8 8 10 10
12 13 15 16 17 19 19 21 23 22 22 23 23 20 17 21 8 5 3 4 2 4 3 2 1 3 0 5 3 4 1 5 6 5 2 1 3 2 2 2 2 3 2 1 2 3 3 1 5 0 3 4 4 7 7 6 4 6 7 7 8 3 6 11 6 7 13 1 2 7 15 21 17 19 18 19 16 13 17 18 18 16 13 12 8 8 9 8
12 14 15 16 17 18 19 20 21 22 21 22 18 15 11 5 5 3 6 5 3 6 2 3 6 1 1 5 6 6 5 4 2 1 3 3 2 3 2 2 3 4 4 6 4 6 5 2 5 5 8 9 9 3 1 6 2 7 5 6 5 8 15 9 7 9 2 13 10 6 13 22 24 23 21 20 20 17 19 20 15 10 10 8 8 9 10 11
12 13 15 15 17 18 19 19 20 21 19 13 11 8 7 9 9 3 9 8 6 0 2 2 1 3 4 4 5 8 4 3 2 3 3 1 1 2 1 1 3 6 6 4 9 3 0 8 4 4 6 7 7 1 3 4 2 3 2 3 8 7 13 11 6 7 1 7 6 5 15 21 25 23 21 21 22 21 20 22 18 11 9 9 11 13 13 12
12 13 14 15 16 18 18 19 18 18 14 6 4 8 4 1 2 4 7 9 2 1 1 1 1 2 3 2 4 6 5 3 2 2 2 2 0 1 3 6 8 9 3 1 2 4 4 7 5 4 5 6 7 1 2 1 0 2 6 6 9 4 11 13 10 11 3 0 8 7 15 24 28 25 22 20 20 22 18 18 18 14 11 10 12 12 11 6
12 12 14 15 16 17 18 17 12 15 7 4 8 7 3 2 0 1 1 6 3 1 4 3 1 2 3 3 3 3 4 1 1 1 3 4 4 7 5 5 2 5 3 4 5 8 7 6 7 4 4 3 3 2 2 2 1 1 4 6 7 10 6 14 8 5 3 3 11 8 14 24 31 28 22 18 18 17 13 12 9 8 10 10 10 8 9 10
11 13 14 15 16 17 16 15 5 13 5 7 5 3 1 1 3 4 0 1 6 2 1 1 0 1 3 2 0 3 2 5 2 6 6 6 7 5 1 4 6 4 2 4 5 6 7 5 7 2 1 2 3 2 3 2 1 1 5 7 9 6 6 10 12 13 11 2 5 5 11 19 27 23 21 15 14 9 8 10 6 11 10 9 8 7 11 13
11 12 13 14 16 17 15 12 2 7 7 8 8 2 1 1 2 2 0 2 3 6 0 1 0 0 3 1 1 1 1 1 1 8 5 3 3 1 3 2 3 2 2 1 1 4 8 12 2 1 2 1 4 5 4 3 6 3 5 6 7 9 9 5 11 10 16 20 3 4 7 8 20 20 16 15 13 9 11 11 10 9 6 3 5 10 10 11
10 11 12 14 15 16 16 5 4 1 1 3 4 0 1 1 0 1 1 3 0 2 2 1 3 2 2 1 2 1 0 1 2 3 2 2 3 2 1 1 1 2 2 1 1 5 9 5 1 1 1 0 1 7 4 1 7 4 5 8 9 8 9 12 11 11 11 18 2 7 12 11 21 25 22 15 14 16 11 11 7 7 7 8 10 8 9 10
10 11 13 14 15 18 11 2 1 1 2 4 0 1 1 1 2 1 1 2 2 1 2 1 1 0 1 2 4 1 0 1 0 1 1 2 3 2 1 1 1 4 1 1 4 4 4 1 2 3 4 5 2 3 4 1 4 2 6 2 4 5 6 9 12 7 10 13 18 7 9 18 13 26 20 15 17 18 10 7 8 6 6 6 6 6 9 10
10 10 12 13 14 16 3 1 0 2 2 1 1 2 1 1 1 2 1 5 1 1 0 1 1 0 3 1 2 1 2 2 1 1 2 3 2 1 2 4 3 0 1 1 4 5 1 6 6 3 2 1 3 5 2 2 1 4 2 1 6 5 7 9 7 4 11 9 19 5 6 13 18 21 7 7 13 11 8 7 10 9 8 7 6 7 9 10
9 10 11 12 12 8 1 1 2 2 1 0 0 1 2 2 3 1 2 4 1 1 0 1 0 2 1 4 6 3 1 4 3 0 2 5 0 3 2 2 1 6 3 2 6 6 1 6 1 6 2 1 4 3 1 1 1 4 6 7 8 9 8 8 5 8 10 10 18 6 3 6 9 18 3 5 11 9 7 10 12 14 13 12 10 10 11 12
9 10 10 10 9 5 3 1 3 4 1 1 0 1 3 3 4 4 4 0 1 1 0 1 2 1 5 3 4 2 2 4 0 2 4 2 7 2 3 2 1 5 3 6 8 3 3 4 4 3 3 6 2 2 2 5 3 4 10 8 5 3 4 6 5 5 10 5 18 13 5 7 17 16 5 3 8 6 9 7 4 6 11 11 11 12 15 14
9 9 10 10 3 2 3 2 3 1 2 1 2 3 3 2 2 3 6 4 1 1 1 1 1 3 3 4 2 5 3 3 1 5 4 2 6 6 1 1 1 3 3 3 2 7 5 5 1 1 1 2 1 2 3 3 2 4 1 7 12 13 7 5 2 2 3 5 16 9 7 2 19 12 9 4 6 6 1 7 12 15 16 15 12 13 14 14
8 9 9 6 2 1 1 2 2 0 1 3 4 4 1 4 2 1 3 5 1 2 1 2 1 4 3 3 5 4 2 1 5 4 4 5 7 6 5 2 4 3 2 3 1 6 7 6 2 1 1 1 2 4 2 4 1 9 5 5 7 6 4 6 4 1 3 12 12 7 3 10 18 18 4 10 13 7 9 10 13 16 14 10 11 10 13 14
8 8 8 2 1 0 0 0 1 2 1 4 3 3 3 5 3 4 5 2 3 1 1 1 1 2 2 2 2 2 2 5 1 4 5 3 2 7 5 2 3 5 3 1 5 2 3 2 1 2 2 9 4 7 5 4 9 8 5 5 6 6 7 7 3 5 5 13 18 9 11 16 15 12 14 7 8 10 11 14 13 16 9 8 9 9 11 11
8 8 4 2 2 1 1 1 0 1 1 2 2 3 2 3 5 3 3 2 3 1 2 2 1 0 1 1 1 1 1 0 3 1 1 1 3 1 0 3 2 3 5 3 6 5 7 3 4 3 3 6 6 8 7 7 7 6 3 1 4 7 3 7 11 7 11 10 16 21 8 18 16 7 4 3 3 7 9 17 18 19 13 11 9 7 9 10
9 7 0 1 1 1 1 0 1 1 0 1 2 3 6 1 7 4 3 4 5 3 3 1 2 2 1 2 1 0 0 1 2 2 2 2 4 3 3 4 5 6 1 5 3 3 8 5 1 2 1 2 7 6 2 2 11 7 0 3 1 3 2 10 6 15 15 16 22 18 11 4 11 1 4 8 5 14 18 22 23 20 16 15 13 12 11 9
7 3 2 1 1 2 1 1 2 1 2 2 5 2 3 8 3 4 5 3 2 1 1 1 0 1 3 1 3 2 2 1 1 3 3 3 3 1 2 4 6 1 2 5 3 1 3 5 4 2 2 5 5 1 1 4 9 1 2 3 6 1 2 8 11 13 9 13 17 6 7 13 13 12 7 15 15 24 27 31 32 25 23 26 24 24 24 23
3 1 1 1 1 0 2 1 1 2 2 5 3 2 8 6 6 2 2 2 1 0 1 2 2 1 1 1 1 0 6 1 3 1 1 1 1 1 1 1 3 3 3 1 3 2 5 5 1 6 7 8 4 3 3 2 1 6 7 3 2 3 3 7 7 13 15 7 16 8 15 14 11 13 6 20 25 29 29 26 23 14 17 19 19 17 16 15
1 1 0 1 1 1 2 2 1 3 5 4 2 7 6 4 5 2 2 1 1 3 2 2 4 4 1 2 2 2 2 3 0 2 3 1 1 2 1 0 2 3 2 1 4 3 1 14 7 6 2 1 2 5 2 3 2 3 4 7 5 5 8 5 4 4 6 7 11 5 19 22 15 10 7 22 24 24 21 21 13 17 21 22 21 19 17 15
1 0 1 1 1 1 1 1 1 4 3 3 6 8 1 3 1 1 2 3 0 2 1 3 5 7 3 3 2 2 1 1 3 2 1 1 1 3 2 2 2 3 3 3 3 3 3 12 4 5 5 1 4 2 3 1 6 3 3 8 6 7 7 7 5 11 8 12 9 7 17 25 12 14 14 21 21 20 20 16 20 26 25 24 21 22 19 15
1 1 2 0 2 2 1 0 3 4 2 2 5 3 3 4 0 1 4 5 1 3 2 4 3 1 3 2 2 1 1 1 0 0 2 1 2 2 2 3 2 5 5 3 3 1 2 2 10 6 6 3 4 5 4 5 3 6 4 5 3 3 3 4 4 8 3 16 12 12 6 22 9 12 18 20 17 17 19 23 24 22 23 22 22 19 17 14
1 0 4 0 2 1 1 0 2 2 2 7 4 6 1 1 2 2 1 3 2 3 4 2 1 2 1 4 4 2 1 2 3 2 3 2 3 1 0 5 1 4 3 3 2 1 1 1 11 10 6 6 5 2 2 6 8 5 5 1 2 1 3 6 5 3 3 8 6 10 17 16 5 8 15 16 18 21 24 25 19 20 23 23 21 20 16 14
1 1 2 1 4 2 0 1 2 4 5 2 1 3 1 2 1 0 1 1 0 1 2 2 4 4 4 2 2 1 1 1 2 3 3 1 3 2 1 0 1 1 2 2 4 1 2 1 8 15 14 7 2 3 2 3 3 1 3 4 6 7 8 9 13 1 3 4 7 7 16 18 7 3 12 15 19 21 23 19 21 21 22 22 22 20 18 14
3 3 2 0 3 1 3 2 1 0 1 5 6 3 1 2 1 1 0 1 1 1 3 1 0 1 2 1 3 3 4 2 2 2 2 6 3 4 0 2 3 0 2 1 0 2 3 2 2 12 7 11 10 15 1 7 3 6 7 1 2 2 3 1 11 9 6 10 8 12 16 24 2 5 6 15 19 20 20 20 20 18 19 22 22 21 17 14
3 4 1 4 2 1 3 2 1 1 3 3 3 2 1 1 2 1 1 1 0 2 1 1 3 2 3 2 1 1 3 1 5 3 2 2 1 1 5 5 4 3 3 1 3 1 3 1 3 8 9 4 3 2 9 6 6 7 4 2 2 6 7 9 8 11 12 12 8 8 14 17 6 7 16 16 15 16 19 21 22 20 17 17 20 19 18 17
2 2 1 0 1 1 3 9 5 7 6 2 2 3 1 1 0 0 2 2 2 0 2 1 2 1 1 1 1 3 3 1 1 4 1 2 4 5 4 3 3 1 3 2 2 4 3 4 4 8 9 8 2 3 2 3 5 4 3 3 5 10 10 8 8 4 5 8 16 14 17 17 12 9 14 15 18 21 21 22 19 20 17 15 16 19 20 20
3 1 2 2 3 1 5 1 4 3 5 3 1 4 1 1 4 2 2 2 1 1 1 0 1 0 1 1 1 1 1 2 0 1 4 1 5 2 6 2 4 2 4 4 1 1 1 2 3 2 9 11 14 14 14 14 12 8 5 14 16 15 16 11 8 6 9 10 17 12 15 19 18 13 18 20 21 20 21 20 20 16 17 18 15 18 21 20
2 3 2 2 1 2 0 1 1 3 3 2 2 3 3 3 0 1 4 1 4 2 2 2 0 4 2 1 1 1 3 2 1 2 2 2 2 2 5 6 4 3 4 4 1 4 2 1 4 6 7 9 10 10 10 8 9 8 11 11 20 16 13 6 7 7 12 15 14 14 17 23 22 22 21 25 20 23 23 18 19 20 20 19 20 19 17 18
0 4 5 3 3 5 3 0 3 2 3 4 2 3 5 5 2 1 5 1 1 3 1 2 2 3 3 3 3 1 1 0 2 4 2 3 1 2 4 7 5 4 6 4 2 3 1 0 7 9 13 12 8 11 15 9 11 8 8 16 19 18 13 10 9 14 14 14 19 11 18 20 22 23 25 23 22 18 16 16 18 20 22 22 22 21 22 21
4 3 4 2 5 5 4 8 8 6 1 3 4 2 3 3 3 4 1 1 1 0 3 1 4 2 5 7 5 3 2 1 1 3 2 1 3 2 2 1 2 2 4 1 1 3 4 3 8 9 12 8 7 12 13 11 6 7 11 17 19 17 14 13 14 16 13 8 19 25 21 21 20 21 23 23 22 23 20 19 20 20 22 23 23 25 25 21
2 1 2 1 4 2 7 2 9 10 9 7 2 4 4 6 7 5 3 1 1 2 4 5 4 6 4 3 5 3 4 1 3 1 3 2 2 2 1 3 1 1 2 1 1 2 5 4 5 6 9 7 7 10 9 11 10 8 13 18 16 17 17 16 16 15 13 16 24 22 19 23 21 19 21 23 24 23 20 18 19 19 22 23 23 25 24 25
8 7 3 3 4 3 2 4 5 7 9 8 6 8 6 6 7 1 2 4 2 3 1 4 3 5 5 5 5 5 6 3 5 5 3 6 1 2 2 4 3 2 2 0 0 4 6 7 3 2 4 10 7 8 9 8 6 8 16 19 17 17 14 12 13 14 14 16 23 21 18 21 15 18 18 20 24 25 22 22 22 23 22 23 26 26 27 28
1 2 7 9 4 3 3 3 5 8 5 5 10 6 4 9 8 6 4 2 7 5 5 9 6 6 1 4 2 4 2 5 4 4 9 7 4 5 6 3 5 2 2 1 1 3 1 4 2 1 3 10 7 8 12 11 8 12 18 17 13 10 9 11 12 11 11 20 25 20 16 15 14 17 20 23 27 33 27 20 21 20 19 25 27 27 30 29
4 2 3 7 4 6 7 3 3 5 10 10 9 6 6 8 5 6 3 2 1 1 4 5 7 7 1 4 9 6 4 5 5 5 6 3 2 2 2 4 4 4 2 3 2 3 2 2 1 1 2 10 13 8 12 13 11 6 5 1 3 9 12 17 16 13 13 18 18 13 15 13 21 21 25 23 26 35 28 19 19 24 29 29 28 31 30 28
Wind_Direction
357 353 350 347 344 342 340 338 338 337 335 333 332 332 337 340 345 345 346 344 339 334 329 328 328 338 358 353 349 348 355 78 23 33 56 194 299 303 325 320 326 318 346 54 23 42 352 8 3 340 19 56 323 52 291 51 91 58 49 100 314 214 141 210 199 190 222 303 299 323 159 330 300 333 276 344 267 233 285 272 261 283 255 233 256 83 211 282
356 353 349 347 343 341 338 337 338 337 334 331 331 332 333 338 343 344 348 345 341 334 329 327 327 342 4 356 353 354 32 66 70 67 91 308 321 331 333 336 342 335 38 37 56 69 56 353 331 22 35 46 313 290 28 198 66 89 126 113 244 185 236 165 204 214 307 284 293 292 307 246 270 326 287 334 283 279 300 276 230 254 261 262 270 256 193 134
354 351 348 345 343 340 338 337 336 334 332 330 329 328 331 336 341 345 345 343 341 334 330 325 330 338 1 4 343 11 26 18 41 17 292 337 324 333 349 358 358 2 51 117 194 105 88 197 269 68 4 97 8 300 17 326 34 210 132 275 247 211 243 221 217 251 192 281 297 309 311 7 265 265 333 252 287 305 271 278 299 229 262 276 262 273 228 169
353 349 346 343 341 340 338 335 333 331 331 330 326 327 329 334 340 345 345 339 337 334 329 328 330 338 349 356 351 319 81 66 43 279 271 326 336 344 349 355 10 20 74 56 142 108 111 79 54 59 29 67 318 16 17 310 53 266 100 199 240 206 335 258 205 236 252 197 270 284 305 319 292 249 139 263 328 292 279 255 224 255 259 262 271 267 239 208
350 347 344 343 342 340 338 335 332 331 330 329 327 325 328 332 339 346 344 341 337 334 330 327 332 342 337 352 345 198 71 61 249 248 268 339 335 343 349 352 8 45 77 148 80 48 67 74 83 38 67 325 352 7 279 323 148 110 216 208 219 253 281 261 218 243 221 187 237 285 318 279 340 304 237 221 244 269 270 279 165 235 253 265 286 277 197 209
344 343 342 342 342 340 337 335 333 330 330 329 327 324 326 333 339 345 344 342 338 334 328 328 330 339 335 347 86 76 91 49 273 306 0 341 337 340 341 356 350 76 100 46 85 5 46 350 56 26 10 49 327 78 281 207 23 284 296 256 234 223 230 273 222 222 136 304 286 296 266 330 281 279 268 244 237 255 262 273 280 268 270 269 277 278 242 222
339 340 342 343 343 341 338 334 332 330 329 328 327 325 327 334 340 342 341 340 335 329 330 325 328 338 334 336 58 72 88 199 349 297 15 333 335 333 337 16 22 51 60 55 20 61 23 47 68 177 93 40 304 184 267 294 340 173 256 296 294 179 225 262 275 285 273 182 255 246 331 297 281 297 273 231 247 254 274 286 299 282 284 281 283 261 252 244
340 342 343 346 345 343 338 335 333 330 329 327 325 326 328 331 337 338 338 336 328 326 322 328 331 335 351 21 50 19 43 337 280 18 341 341 344 333 319 78 20 51 58 77 31 68 97 49 50 156 78 109 237 177 190 320 208 200 258 264 273 313 254 264 270 280 267 246 244 265 272 260 253 247 340 275 270 278 276 287 290 292 305 294 259 269 263 259
344 345 348 348 347 343 338 335 333 330 327 324 324 324 326 326 331 336 335 331 328 318 321 330 329 337 332 65 103 76 5 259 224 309 358 358 336 6 30 11 4 66 132 53 34 135 106 269 346 205 276 304 164 307 284 15 313 209 233 298 295 289 294 303 306 284 289 275 168 146 235 263 269 282 263 268 276 265 280 306 284 317 297 283 263 263 269 262
348 348 348 348 346 343 339 336 334 329 325 324 324 323 323 323 326 334 332 327 326 321 317 324 334 330 22 76 38 77 272 277 333 330 345 359 352 22 39 58 21 67 58 340 43 58 78 199 194 247 149 198 160 240 161 115 244 167 259 270 283 283 309 311 308 309 322 252 159 166 245 266 274 117 290 149 237 267 315 283 288 327 294 285 279 275 260 246
347 347 346 347 347 345 341 338 332 328 325 325 322 319 320 320 322 330 331 325 325 316 310 333 347 4 42 75 93 86 259 21 351 356 3 13 23 28 353 339 351 60 79 44 99 208 146 163 196 90 52 224 116 275 161 229 137 216 231 324 296 306 292 272 303 298 355 327 143 170 247 248 314 177 242 276 284 292 285 283 294 301 281 278 276 272 269 253
346 345 346 346 347 344 341 335 330 327 326 323 318 314 313 319 321 326 330 322 319 305 318 339 12 93 69 76 85 99 320 235 346 345 40 26 3 329 240 230 26 136 106 62 75 256 193 170 122 96 255 43 283 132 253 221 15 279 88 297 300 345 333 315 324 340 20 308 344 262 251 149 329 221 241 255 276 285 301 292 283 278 276 274 272 274 270 258
343 342 343 343 343 341 336 332 330 330 326 321 315 310 310 317 320 325 324 325 305 298 339 22 19 75 88 36 262 225 290 238 58 13 8 26 354 96 51 345 114 115 140 123 177 227 199 136 137 108 238 93 287 329 155 94 294 38 73 196 324 359 315 286 309 352 354 294 348 7 324 302 266 232 267 271 280 317 305 276 273 266 269 271 277 278 280 271
341 336 334 336 336 334 332 330 332 330 325 317 310 309 308 314 323 320 314 312 309 283 86 117 69 56 85 212 269 230 231 127 82 32 351 321 19 312 346 5 60 34 13 98 64 115 127 19 99 113 73 154 286 304 319 339 24 235 274 65 324 342 276 305 336 317 4 274 13 35 307 297 303 300 292 298 164 295 295 295 270 270 271 274 274 277 277 273
336 333 334 339 339 335 333 332 333 330 322 312 308 306 310 314 327 315 304 325 323 318 135 63 54 53 56 282 297 296 180 107 43 342 317 15 17 342 330 353 345 11 360 88 134 227 97 90 81 34 281 320 340 12 306 357 350 356 40 320 321 23 293 306 285 260 332 318 6 8 285 285 298 294 313 142 312 270 295 299 299 284 282 280 282 284 282 279
334 333 340 346 342 335 333 336 335 327 316 310 308 307 312 312 334 305 309 118 35 101 98 30 10 106 99 48 239 105 45 39 335 316 337 83 67 301 307 310 301 16 21 14 54 89 44 88 68 196 262 3 47 60 346 18 347 2 68 293 315 306 294 328 336 176 123 252 336 42 280 308 304 310 313 314 268 312 299 299 302 306 306 307 308 298 294 300
330 335 342 346 342 336 338 336 330 322 314 310 310 309 314 309 355 308 342 92 59 44 80 313 69 84 95 253 221 31 323 287 278 2 346 69 45 204 2 22 348 337 3 63 39 82 356 51 294 13 41 88 121 62 12 25 329 319 19 297 270 296 319 316 310 353 108 52 307 316 265 270 280 296 303 309 320 319 302 298 301 309 317 320 322 309 302 303
338 342 343 343 340 338 337 333 327 318 314 310 311 304 304 303 340 303 301 56 26 82 100 105 118 35 294 22 30 305 307 284 344 295 229 303 82 54 51 27 316 333 33 33 358 58 332 8 30 202 6 5 33 22 61 321 295 298 329 329 316 276 217 245 293 280 332 336 204 293 289 289 292 295 301 304 309 312 300 296 301 312 322 327 321 309 304 312
344 346 346 343 340 338 333 328 323 319 317 312 302 302 296 2 50 61 49 338 37 350 33 330 22 75 219 299 285 302 291 268 290 15 329 22 349 83 69 95 64 35 359 29 315 39 353 28 26 41 354 340 336 28 323 258 257 280 274 276 276 313 309 285 250 279 347 310 320 300 292 303 304 303 308 309 309 308 300 301 303 320 327 328 319 320 339 359
347 349 347 343 342 335 331 328 327 322 324 332 348 5 16 11 2 341 342 37 72 174 243 282 237 272 314 320 320 281 255 343 119 1 326 325 21 343 71 72 5 64 61 40 307 39 327 37 337 286 284 279 284 222 232 240 216 281 306 275 278 287 291 289 283 271 58 323 300 319 305 301 298 300 305 305 307 305 306 307 314 336 341 336 340 5 16 20
347 346 345 344 338 332 328 331 330 322 324 332 340 49 46 194 43 318 313 289 238 58 32 259 166 182 246 293 295 5 14 325 56 308 337 231 124 149 332 15 14 10 357 222 235 304 65 25 296 236 237 249 268 108 107 72 37 239 300 298 302 289 277 286 301 306 328 93 297 336 317 303 296 299 298 301 301 298 307 310 317 347 354 11 25 23 18 7
346 344 347 343 336 327 329 332 331 324 349 1 55 76 128 183 201 245 49 314 325 344 15 278 207 304 322 217 245 149 115 1 18 342 304 17 324 47 319 71 60 344 318 353 8 10 358 305 247 253 250 250 284 110 159 172 246 306 254 294 329 284 250 287 288 290 300 17 290 348 319 298 293 295 295 295 290 293 303 302 329 22 25 33 26 20 12 9
346 349 347 341 334 327 329 330 304 8 9 19 42 58 82 294 334 285 38 211 278 278 5 23 357 308 308 281 221 169 44 37 310 334 345 6 6 73 334 46 346 308 360 39 21 343 346 283 254 251 208 348 326 40 84 84 76 196 297 314 283 288 347 304 306 323 316 241 281 308 284 285 288 290 292 282 278 293 302 310 9 63 57 38 29 13 8 2
351 351 344 336 331 324 325 329 302 18 32 69 75 29 269 312 311 334 44 224 294 314 225 252 218 214 274 18 244 82 78 293 48 330 338 37 53 212 73 98 334 33 303 74 341 265 252 265 344 41 28 186 273 305 340 354 312 230 211 253 281 297 283 262 298 330 311 303 272 199 252 280 277 289 291 297 303 314 309 322 340 63 53 58 24 19 3 355
354 350 342 334 334 324 325 344 44 54 217 51 73 323 157 237 86 215 254 311 5 302 215 340 100 257 234 4 13 337 229 78 227 233 273 58 346 38 6 191 87 276 276 235 249 292 285 269 139 61 16 64 346 319 294 62 309 309 239 213 247 278 301 300 307 353 326 305 333 75 319 269 290 288 289 307 304 301 307 316 9 54 29 22 19 2 351 353
354 347 343 339 338 331 328 56 319 189 101 55 28 312 54 33 33 53 80 70 304 274 358 244 160 285 162 305 5 174 96 80 206 251 115 193 191 98 5 15 116 299 355 342 268 239 237 313 47 295 289 299 338 252 258 139 256 19 288 184 234 258 287 295 301 356 307 303 305 59 292 295 283 285 296 305 299 293 314 343 47 35 17 20 5 354 354 351
349 347 344 343 344 337 65 280 126 191 24 1 249 285 9 48 47 40 357 345 44 240 150 238 79 282 82 272 327 17 37 265 298 6 37 329 43 301 46 278 8 341 160 190 38 294 11 310 353 10 323 336 360 319 280 140 45 285 228 27 326 319 290 281 288 255 266 277 286 307 212 272 291 273 308 266 277 302 318 34 16 18 13 7 1 355 4 10
345 344 345 344 347 9 146 105 36 46 158 310 345 35 32 29 59 85 60 351 327 347 96 278 195 324 58 325 23 82 262 321 16 285 40 303 121 341 67 263 221 262 286 61 278 252 77 304 24 320 303 322 280 244 301 114 136 233 301 348 312 297 289 285 279 280 271 308 291 311 259 274 247 285 351 333 311 313 331 33 14 5 357 352 358 10 19 19
343 340 344 341 346 74 29 92 104 91 8 339 165 81 56 64 76 89 94 324 227 77 208 79 298 30 337 356 28 12 321 10 172 300 339 57 50 160 3 275 194 286 254 181 219 293 294 188 245 248 289 283 243 304 158 122 34 300 324 321 276 244 238 254 283 300 294 328 278 294 272 270 277 288 4 342 293 1 21 8 360 354 347 351 0 11 16 16
335 339 341 339 13 27 3 4 57 116 316 88 111 104 80 56 52 38 359 250 20 272 136 244 102 272 25 31 313 359 42 337 351 304 21 81 333 19 15 93 77 330 299 1 247 235 255 299 224 117 223 214 179 269 148 118 14 309 9 338 333 326 315 315 274 195 11 244 276 274 275 229 292 289 321 11 315 4 71 9 359 355 355 356 12 14 16 12
331 332 340 1 115 213 110 52 161 264 335 110 102 98 129 37 95 95 261 226 55 240 13 27 241 14 32 54 329 322 35 349 334 26 340 2 357 30 344 25 32 39 14 353 335 317 327 327 49 301 112 330 99 23 74 91 61 31 10 330 330 307 339 314 313 28 224 274 272 308 47 336 302 302 47 329 338 62 31 3 356 352 348 1 6 13 11 6
326 329 339 28 204 162 92 183 249 304 296 127 113 54 59 323 21 169 228 318 335 286 125 244 19 102 58 21 117 310 318 334 1 33 24 27 18 36 3 98 16 356 332 86 292 6 324 272 266 108 239 52 5 20 348 45 42 26 307 346 14 305 327 317 9 335 252 282 289 286 345 314 249 280 318 333 60 20 10 353 346 346 359 11 360 21 9 1
324 325 9 67 137 69 76 257 290 296 249 140 76 61 49 77 294 240 270 356 254 95 282 84 168 22 129 67 267 301 232 182 320 82 142 1 94 64 306 90 272 180 278 295 295 20 283 271 353 287 17 26 61 37 336 360 351 358 339 6 24 334 353 296 310 275 282 266 277 298 342 264 281 298 89 76 49 6 344 346 348 346 357 359 4 9 4 353
317 321 302 222 227 217 243 19 323 274 40 51 72 30 45 343 249 205 224 224 235 10 63 84 27 38 64 200 254 109 358 204 33 320 61 341 60 8 328 329 28 355 105 297 331 337 338 357 318 13 2 71 57 109 128 256 325 333 16 108 69 102 21 312 302 299 293 293 300 304 327 241 323 133 96 20 333 350 351 346 342 345 346 346 339 340 340 338
325 53 110 64 229 257 266 32 36 45 99 69 48 98 241 256 241 246 241 276 289 323 103 317 124 61 302 39 314 282 176 292 99 339 22 57 344 90 7 329 328 96 260 16 289 40 213 236 252 336 106 61 68 17 176 341 316 280 182 77 57 148 143 247 272 276 279 291 293 298 226 287 287 339 355 358 356 349 348 346 342 345 352 348 344 342 341 341
2 292 166 50 344 277 52 50 34 84 88 63 86 224 208 200 277 153 242 164 55 64 283 353 102 247 249 316 313 39 311 119 325 76 314 82 215 115 133 305 355 352 25 73 301 0 353 269 39 333 55 89 109 338 320 230 350 302 17 342 192 207 185 273 277 252 276 305 270 304 289 279 294 315 313 3 357 348 344 331 324 334 336 333 330 331 330 327
63 13 198 312 297 270 354 68 74 87 65 91 138 252 211 275 202 164 254 164 230 134 59 340 285 165 245 231 222 340 278 55 252 80 292 85 359 114 81 4 116 15 73 128 337 127 122 284 259 226 278 206 255 337 22 22 86 52 4 302 284 279 163 161 259 270 250 260 282 317 294 296 311 306 45 2 341 334 321 316 326 329 331 330 327 326 324 318
74 29 255 299 240 272 74 97 107 53 78 122 217 234 148 222 171 135 129 91 40 51 102 135 266 125 268 138 283 190 288 102 292 43 266 149 253 128 98 126 341 49 323 327 127 292 59 306 334 146 113 197 317 49 40 113 66 53 288 303 15 339 352 326 320 312 342 293 285 286 308 288 303 304 356 340 330 317 318 328 330 328 329 321 320 318 314 310
68 97 300 264 311 16 339 94 77 80 82 194 226 302 241 235 329 183 202 141 130 125 167 232 188 310 137 231 213 251 250 237 257 166 71 270 96 93 102 116 300 351 354 24 50 19 334 260 304 128 85 313 360 76 331 285 10 104 77 358 337 75 333 349 277 292 307 283 300 300 283 279 341 339 340 320 312 316 326 325 320 320 315 317 314 311 307 302
119 47 270 293 294 345 326 81 57 51 101 212 200 224 163 293 244 254 237 163 222 138 233 168 237 228 177 216 149 165 316 145 149 236 125 284 104 40 120 348 124 333 56 3 108 81 302 127 277 282 1 20 357 30 300 336 342 343 30 54 56 18 258 272 240 217 176 271 278 313 294 280 317 0 314 312 317 321 319 316 314 314 314 313 310 306 300 293
258 168 260 339 325 330 84 43 97 173 201 269 155 233 338 226 333 294 23 132 288 313 192 188 160 198 190 117 268 140 136 144 182 153 194 289 121 285 96 159 306 351 340 27 56 338 41 354 260 306 325 338 302 182 241 344 159 181 82 19 2 343 341 350 304 312 341 330 294 306 277 271 320 325 307 316 313 310 310 309 310 310 311 310 308 303 295 292
121 229 254 275 305 4 99 150 247 60 154 208 229 159 262 360 6 287 3 30 144 219 36 108 258 153 124 216 158 190 135 198 228 172 279 183 333 119 297 99 208 193 102 347 218 244 144 194 251 283 279 293 300 286 31 165 150 153 118 272 238 201 281 192 288 304 306 273 291 271 284 285 28 257 300 304 305 304 306 306 306 309 307 309 308 304 297 288
175 224 306 271 325 120 82 248 42 221 218 236 357 276 158 291 189 269 166 314 269 115 27 197 200 137 247 141 229 138 159 198 165 218 153 72 109 152 188 174 241 70 92 307 14 272 63 120 12 279 289 261 272 355 145 143 73 37 8 352 2 320 290 271 262 291 297 303 298 272 251 281 314 322 307 303 299 304 306 308 308 308 307 305 309 308 302 299
142 129 272 247 37 287 137 218 206 218 244 300 162 243 142 200 77 313 209 286 160 205 170 203 350 188 177 69 119 167 194 91 255 122 65 129 147 170 204 186 206 55 101 249 128 261 63 298 81 325 313 316 272 134 134 232 104 148 298 265 280 283 283 275 277 265 275 287 287 290 291 301 297 313 296 301 307 305 305 304 305 307 307 306 309 308 304 301
114 59 66 309 10 112 208 241 180 169 208 220 134 269 123 290 194 181 165 210 113 159 106 246 170 209 71 77 60 26 309 182 134 321 124 139 178 150 269 258 240 160 236 233 261 67 136 221 89 304 304 322 325 324 321 328 337 341 341 327 312 307 310 333 315 321 289 282 288 285 287 278 287 302 302 304 306 303 304 307 306 301 302 306 302 302 301 301
167 220 143 344 59 15 351 346 49 148 156 149 304 242 145 217 348 272 153 246 154 89 103 147 21 95 127 90 77 234 211 332 154 201 124 161 163 258 206 289 211 217 249 235 126 95 160 309 153 194 213 228 247 264 277 305 322 313 317 309 297 296 299 300 292 296 285 290 283 277 273 294 304 311 309 307 309 307 307 311 310 307 307 305 302 298 293 293
141 201 149 192 47 240 227 162 189 145 202 154 210 157 203 190 194 309 167 201 149 144 70 146 184 141 227 121 188 185 220 54 27 106 199 152 231 174 267 204 280 253 225 115 144 81 83 332 226 231 239 246 263 275 279 286 289 299 309 291 286 292 299 303 295 283 282 300 284 282 290 299 304 307 304 303 303 297 297 305 307 303 304 304 300 294 290 288
188 241 133 186 139 199 143 238 186 207 256 159 234 100 190 157 197 187 348 169 90 150 137 292 130 259 181 177 145 153 152 165 160 201 54 67 65 331 351 345 162 343 108 66 24 128 164 210 241 219 251 246 239 253 266 280 278 291 280 276 282 289 296 290 281 277 288 266 283 297 304 297 296 296 299 299 301 299 302 302 297 296 295 295 294 294 291 288
104 331 151 303 188 217 174 150 170 194 205 184 248 170 208 184 202 193 172 149 149 272 165 229 217 205 194 161 149 184 159 120 277 45 174 165 178 140 357 346 101 125 78 109 104 135 72 264 204 240 265 260 237 246 256 269 276 279 276 275 280 286 283 282 278 279 280 281 279 287 300 292 297 298 300 301 299 296 298 297 294 292 293 291 291 292 290 291
201 151 203 16 77 83 104 111 157 177 210 187 196 217 183 199 198 167 333 149 229 254 88 219 199 176 170 157 145 168 209 178 162 165 180 128 322 150 234 199 204 332 103 319 174 285 118 266 136 240 297 286 267 257 263 255 263 269 270 273 281 281 281 275 287 297 299 285 285 298 300 297 297 298 299 300 299 293 296 297 294 293 294 290 290 291 291 290
132 108 144 136 170 194 95 153 152 180 187 197 208 218 157 203 209 177 216 174 198 191 177 214 165 139 105 150 190 226 198 141 148 183 171 153 180 213 131 271 127 184 225 234 298 311 142 244 21 73 332 293 298 305 298 299 289 271 269 272 268 279 296 298 296 297 301 292 296 308 306 298 298 301 300 299 298 295 298 301 303 301 296 296 293 291 291 289
85 357 97 116 181 162 166 139 158 110 225 205 190 183 184 205 182 160 250 172 103 236 191 160 161 133 171 156 217 211 195 169 181 180 169 211 167 220 220 180 185 166 222 167 187 134 207 162 351 18 345 271 288 308 312 312 309 294 274 167 282 298 290 293 291 293 289 293 303 311 290 292 299 303 303 301 299 300 302 311 315 310 308 303 297 291 288 287